Change the Weather History Date:

Wednesday, January 1, 2014

  Actual Average Record
Temperature  
Mean Temperature 49 °F -  
Max Temperature 62 °F 57 °F - ()
Min Temperature 36 °F 39 °F - ()
Degree Days  
Heating Degree Days 16    
Moisture  
Dew Point 45 °F    
Average Humidity 86    
Maximum Humidity 100    
Minimum Humidity 50    
Precipitation  
Precipitation 0.00 in 0.05 in - ()
Sea Level Pressure  
Sea Level Pressure 30.07 in    
Wind  
Wind Speed 3 mph ()    
Max Wind Speed 14 mph    
Max Gust Speed -    
Visibility 7.1 miles    
Events      
T = Trace of Precipitation, MM = Missing Value Source: Averaged Metar Reports

Daily Weather History Graph

Daily Weather History Graph

Search for Another Location

Airport or City:

Trip Planner

Search our weather history database for the weather conditions in past years. The results will help you decide how hot, cold, wet, or windy it might be!

Date:

Astronomy

Jan. 01, 2014 Rise Set
Actual Time 8:09 AM CET 5:35 PM CET
Civil Twilight 7:39 AM CET 6:05 PM CET
Nautical Twilight 7:05 AM CET 6:39 PM CET
Astronomical Twilight 6:33 AM CET 7:12 PM CET
Moon 7:46 AM CET (1/1) 6:02 PM CET (1/1)
Length of Visible Light 10h 26m
Length of Day
9h 26m
Waning Crescent, 0% of the Moon is Illuminated
Jan 1
Waning Crescent
Jan 1
New
Jan 8
First Quarter
Jan 16
Full
Jan 24
Last Quarter

Hourly Weather History & Observations

Time (CET) Temp. Dew Point Humidity Pressure Visibility Wind Dir Wind Speed Gust Speed Precip Events Conditions
12:00 AM 39 °F 37 °F 92% 30.11 in - NNW 2.3 mph - -  
12:00 AM 39.2 °F 37.4 °F 93% 30.09 in 6.2 mi Calm Calm - N/A   Partly Cloudy
12:30 AM 41.0 °F 39.2 °F 93% 30.09 in 6.2 mi Calm Calm - N/A   Partly Cloudy
1:00 AM 39 °F 37 °F 92% 30.11 in - NNW 1.2 mph - -  
1:00 AM 39.2 °F 37.4 °F 93% 30.09 in 6.2 mi Calm Calm - N/A   Partly Cloudy
1:30 AM 37.4 °F 37.4 °F 100% 30.09 in 6.2 mi Calm Calm - N/A   Partly Cloudy
2:00 AM 38 °F 38 °F 98% 30.10 in - Calm Calm - -  
2:00 AM 37.4 °F 37.4 °F 100% 30.09 in 6.2 mi NE 1.2 mph - N/A   Partly Cloudy
2:30 AM 39.2 °F 39.2 °F 100% 30.06 in 6.2 mi Calm Calm - N/A   Partly Cloudy
3:00 AM 38 °F 38 °F 99% 30.10 in - Calm Calm - -  
3:00 AM 39.2 °F 37.4 °F 93% 30.06 in 6.2 mi Calm Calm - N/A   Partly Cloudy
3:30 AM 37.4 °F 37.4 °F 100% 30.06 in 6.2 mi Calm Calm - N/A   Partly Cloudy
4:00 AM 38 °F 37 °F 95% 30.09 in 12 mi WNW 1.2 mph - -   Scattered Clouds
4:00 AM 37.4 °F 37.4 °F 100% 30.06 in 6.2 mi Calm Calm - N/A   Partly Cloudy
4:30 AM 37.4 °F 37.4 °F 100% 30.06 in 6.2 mi Calm Calm - N/A   Partly Cloudy
5:00 AM 38 °F 37 °F 96% 30.08 in - Calm Calm - -  
5:00 AM 39.2 °F 37.4 °F 93% 30.06 in 6.2 mi Calm Calm - N/A   Partly Cloudy
5:30 AM 37.4 °F 37.4 °F 100% 30.06 in 6.2 mi NNW 1.2 mph - N/A   Partly Cloudy
6:00 AM 38 °F 38 °F 98% 30.08 in - NNW 2.3 mph - -  
6:00 AM 39.2 °F 39.2 °F 100% 30.06 in 6.2 mi NW 2.3 mph - N/A   Partly Cloudy
6:30 AM 37.4 °F 37.4 °F 100% 30.06 in 6.2 mi Calm Calm - N/A   Partly Cloudy
7:00 AM 37 °F 36 °F 95% 30.09 in 12 mi Calm Calm - -   Scattered Clouds
7:00 AM 37.4 °F 35.6 °F 93% 30.06 in 6.2 mi Variable 2.3 mph - N/A   Partly Cloudy
7:30 AM 37.4 °F 35.6 °F 93% 30.06 in 6.2 mi Calm Calm - N/A   Partly Cloudy
8:00 AM 39 °F 39 °F 98% 30.09 in - Calm Calm - -  
8:00 AM 39.2 °F 39.2 °F 100% 30.06 in 6.2 mi Calm Calm - N/A   Partly Cloudy
8:30 AM 39.2 °F 39.2 °F 100% 30.06 in 6.2 mi Calm Calm - N/A   Partly Cloudy
9:00 AM 42 °F 41 °F 96% 30.09 in - Calm Calm - -  
9:00 AM 42.8 °F 41.0 °F 93% 30.06 in 6.2 mi Calm Calm - N/A   Partly Cloudy
9:30 AM 42.8 °F 42.8 °F 100% 30.09 in 6.2 mi Calm Calm - N/A   Partly Cloudy
10:00 AM 45 °F 44 °F 95% 30.11 in 16 mi Calm Calm - -   Scattered Clouds
10:00 AM 44.6 °F 44.6 °F 100% 30.09 in 6.2 mi Calm Calm - N/A   Partly Cloudy
10:30 AM 50.0 °F 48.2 °F 94% 30.09 in 6.2 mi Calm Calm - N/A   Partly Cloudy
11:00 AM 54 °F 49 °F 77% 30.12 in - Calm Calm - -  
11:00 AM 53.6 °F 51.8 °F 94% 30.09 in 6.2 mi Calm Calm - N/A   Partly Cloudy
11:30 AM 57.2 °F 50.0 °F 77% 30.09 in 6.2 mi Variable 2.3 mph - N/A   Partly Cloudy
12:00 PM 59 °F 47 °F 54% 30.10 in - WNW 6.9 mph - -  
12:00 PM 59.0 °F 46.4 °F 63% 30.09 in 6.2 mi SSW 3.5 mph - N/A   Partly Cloudy
12:30 PM 59.0 °F 50.0 °F 72% 30.06 in 6.2 mi SW 5.8 mph - N/A   Partly Cloudy
1:00 PM 61 °F 51 °F 62% 30.08 in - WSW 12.7 mph - -  
1:00 PM 60.8 °F 51.8 °F 72% 30.06 in 6.2 mi WSW 11.5 mph - N/A   Partly Cloudy
1:30 PM 60.8 °F 50.0 °F 68% 30.06 in 6.2 mi WSW 12.7 mph - N/A   Partly Cloudy
2:00 PM 62 °F 51 °F 57% 30.06 in - WSW 13.8 mph - -  
2:00 PM 60.8 °F 50.0 °F 68% 30.06 in 6.2 mi WSW 12.7 mph - N/A   Partly Cloudy
2:30 PM 60.8 °F 48.2 °F 63% 30.04 in 6.2 mi WSW 13.8 mph - N/A   Partly Cloudy
3:00 PM 62 °F 48 °F 50% 30.05 in - WSW 13.8 mph - -  
3:00 PM 60.8 °F 48.2 °F 63% 30.04 in 6.2 mi WSW 12.7 mph - N/A   Partly Cloudy
3:30 PM 60.8 °F 48.2 °F 63% 30.04 in 6.2 mi WSW 9.2 mph - N/A   Partly Cloudy
4:00 PM 60 °F 50 °F 60% 30.06 in 19 mi WSW 11.5 mph - -   Scattered Clouds
4:00 PM 59.0 °F 50.0 °F 72% 30.04 in 6.2 mi WSW 9.2 mph - N/A   Partly Cloudy
4:30 PM 59.0 °F 50.0 °F 72% 30.04 in 6.2 mi WSW 9.2 mph - N/A   Partly Cloudy
5:00 PM 57 °F 49 °F 67% 30.05 in - SW 9.2 mph - -  
5:00 PM 57.2 °F 50.0 °F 77% 30.04 in 6.2 mi SW 6.9 mph - N/A   Partly Cloudy
5:30 PM 55.4 °F 48.2 °F 77% 30.04 in 6.2 mi SW 8.1 mph - N/A   Partly Cloudy
6:00 PM 56 °F 48 °F 66% 30.06 in - WSW 10.4 mph - -  
6:00 PM 55.4 °F 48.2 °F 77% 30.06 in 6.2 mi WSW 10.4 mph - N/A   Partly Cloudy
6:30 PM 55.4 °F 48.2 °F 77% 30.06 in 6.2 mi West 6.9 mph - N/A   Partly Cloudy
7:00 PM 54 °F 48 °F 72% 30.07 in 16 mi West 1.2 mph - -   Scattered Clouds
7:00 PM 53.6 °F 48.2 °F 82% 30.06 in 6.2 mi WSW 6.9 mph - N/A   Partly Cloudy
7:30 PM 53.6 °F 48.2 °F 82% 30.06 in 6.2 mi WSW 5.8 mph - N/A   Partly Cloudy
8:00 PM 54 °F 52 °F 89% 30.06 in - WSW 6.9 mph - -  
8:00 PM 53.6 °F 50.0 °F 88% 30.06 in 6.2 mi WSW 6.9 mph - N/A   Partly Cloudy
8:30 PM 53.6 °F 50.0 °F 88% 30.04 in 6.2 mi WSW 9.2 mph - N/A   Partly Cloudy
9:00 PM 56 °F 54 °F 90% 30.05 in - WSW 8.1 mph - -  
9:00 PM 55.4 °F 53.6 °F 94% 30.04 in 6.2 mi WSW 8.1 mph - N/A   Partly Cloudy
9:30 PM 55.4 °F 53.6 °F 94% 30.04 in 6.2 mi WSW 11.5 mph - N/A   Partly Cloudy
10:00 PM 56 °F 53 °F 87% 30.05 in 11 mi WSW 11.5 mph - -   Scattered Clouds
10:00 PM 55.4 °F 53.6 °F 94% 30.04 in 6.2 mi WSW 10.4 mph - N/A   Partly Cloudy
10:30 PM 55.4 °F 53.6 °F 94% 30.04 in 6.2 mi WSW 10.4 mph - N/A   Partly Cloudy
11:00 PM 55 °F 52 °F 84% 30.05 in - West 3.5 mph - -  
11:00 PM 55.4 °F 51.8 °F 88% 30.04 in 6.2 mi WSW 10.4 mph - N/A   Scattered Clouds
11:30 PM 55.4 °F 53.6 °F 94% 30.04 in 6.2 mi WSW 9.2 mph - N/A   Scattered Clouds